Location: Montbazon
(47.2835°N, 0.6999°E)
Time: 18:27:31
(UTC+00:00)

NOAA 12 - Pass Details

Date: 08 November 2025
Orbit: 793 x 812 km, 98.6° (Epoch: 10 December)

Event Time Altitude Azimuth Distance (km) Brightness Sun altitude
Rises 05:38:08 0° 10° (N) 3,345 7.3 -12.6°
Reaches altitude 10° 05:40:31 10° 7° (N) 2,411 6.5 -12.2°
Maximum altitude 05:45:44 58° 290° (WNW) 950 4.2 -11.4°
Drops below altitude 10° 05:50:55 10° 213° (SSW) 2,394 6.4 -10.5°
Sets 05:53:16 0° 209° (SSW) 3,320 7.1 -10.1°
